Location: Dürabuch
(48.2640°N, 11.2185°E)
Time: 22:58:27
(UTC+00:00)

Cosmos 1025 Rocket - Pass Details

Date: 23 May 2024
Orbit: 590 x 614 km, 82.5° (Epoch: 14 June)

Event Time Altitude Azimuth Distance (km) Brightness Sun altitude
Rises 02:39:20 0° 177° (S) 2,869 6.1 -7.0°
Reaches altitude 10° 02:41:33 10° 174° (S) 1,970 5.3 -6.7°
Maximum altitude 02:45:50 58° 95° (E) 719 3.7 -6.2°
Drops below altitude 10° 02:50:10 10° 17° (NNE) 1,985 6.7 -5.6°
Sets 02:52:25 0° 13° (NNE) 2,894 7.5 -5.3°
